Weather History for Houston Intercontinental, TX

Change the Weather History Date:

Sunday, December 2, 2012

  Actual Average Record
Temperature  
Mean Temperature 72 °F -  
Max Temperature 84 °F 65 °F 84 °F (2012)
Min Temperature 61 °F 46 °F 34 °F (2008)
Cooling Degree Days 8    
Growing Degree Days 22 (Base 50)    
Moisture  
Dew Point 63 °F    
Average Humidity 86    
Maximum Humidity 100    
Minimum Humidity 42    
Precipitation  
Precipitation 0.00 in - - ()
Sea Level Pressure  
Sea Level Pressure 30.14 in    
Wind  
Wind Speed 4 mph (SE)    
Max Wind Speed 14 mph    
Max Gust Speed 23 mph    
Visibility 7 miles    
Events Fog    
Averages and records for this station are not official NWS values.
T = Trace of Precipitation, MM = Missing Value Source: NWS Daily Summary

Daily Weather History Graph

Daily Weather History Graph

Search for Another Location

Airport:

Trip Planner

Search our weather history database for the weather conditions in past years. The results will help you decide how hot, cold, wet, or windy it might be!

Date:

Astronomy

Dec. 02, 2012 Rise Set
Actual Time 7:00 AM CST 5:21 PM CST
Civil Twilight 6:34 AM CST 5:47 PM CST
Nautical Twilight 6:05 AM CST 6:16 PM CST
Astronomical Twilight 5:36 AM CST 6:45 PM CST
Moon 9:02 PM CST (12/2) 9:57 AM CST (12/2)
Length of Visible Light 11h 12m
Length of Day
10h 20m
Waning Gibbous, 85% of the Moon is Illuminated
Dec 2
Waning Gibbous
Dec 6
Last Quarter
Dec 13
New
Dec 19
First Quarter
Dec 28
Full

Hourly Weather History & Observations

Time (CST) Temp. Heat Index Dew Point Humidity Pressure Visibility Wind Dir Wind Speed Gust Speed Precip Events Conditions
12:53 AM 64.9 °F - 64.0 °F 97% 30.12 in 10.0 mi SSE 5.8 mph - N/A   Mostly Cloudy
1:31 AM 64.4 °F - 64.4 °F 100% 30.12 in 10.0 mi SSE 3.5 mph - N/A   Partly Cloudy
1:53 AM 62.1 °F - 62.1 °F 100% 30.12 in 10.0 mi Calm Calm - N/A   Partly Cloudy
2:53 AM 64.0 °F - 63.0 °F 96% 30.12 in 8.0 mi Calm Calm - N/A Fog Shallow Fog
3:53 AM 62.1 °F - 62.1 °F 100% 30.12 in 5.0 mi SSE 3.5 mph - N/A Fog Patches of Fog
4:53 AM 62.1 °F - 62.1 °F 100% 30.13 in 4.0 mi Calm Calm - N/A Fog Patches of Fog
5:36 AM 60.8 °F - 60.8 °F 100% 30.14 in 3.0 mi NNE 3.5 mph - N/A Fog Patches of Fog
5:49 AM 60.8 °F - 60.8 °F 100% 30.14 in 1.0 mi Calm Calm - N/A Fog Patches of Fog
5:53 AM 61.0 °F - 61.0 °F 100% 30.14 in 1.0 mi Calm Calm - N/A Fog Patches of Fog
6:01 AM 60.8 °F - 60.8 °F 100% 30.14 in 0.8 mi Calm Calm - N/A   Scattered Clouds
6:12 AM 62.6 °F - 60.8 °F 94% 30.14 in 0.5 mi Calm Calm - N/A Fog Fog
6:30 AM 60.8 °F - 60.8 °F 100% 30.15 in 1.0 mi Calm Calm - N/A   Mostly Cloudy
6:37 AM 60.8 °F - 60.8 °F 100% 30.15 in 4.0 mi Calm Calm - N/A Fog Patches of Fog
6:53 AM 61.0 °F - 61.0 °F 100% 30.16 in 4.0 mi Calm Calm - N/A Fog Patches of Fog
7:53 AM 63.0 °F - 63.0 °F 100% 30.17 in 5.0 mi ESE 4.6 mph - N/A Fog Patches of Fog
8:04 AM 64.4 °F - 64.4 °F 100% 30.17 in 2.0 mi ESE 3.5 mph - N/A   Mostly Cloudy
8:35 AM 66.2 °F - 66.2 °F 100% 30.18 in 3.0 mi East 3.5 mph - N/A   Mostly Cloudy
8:49 AM 66.2 °F - 66.2 °F 100% 30.18 in 3.0 mi ESE 3.5 mph - N/A   Mostly Cloudy
8:53 AM 66.9 °F - 66.9 °F 100% 30.18 in 4.0 mi ESE 3.5 mph - N/A   Mostly Cloudy
9:53 AM 73.9 °F - 68.0 °F 82% 30.19 in 10.0 mi SE 4.6 mph - N/A   Scattered Clouds
10:19 AM 75.2 °F - 66.2 °F 73% 30.19 in 10.0 mi South 9.2 mph - N/A   Mostly Cloudy
10:30 AM 75.2 °F - 68.0 °F 78% 30.19 in 10.0 mi South 9.2 mph - N/A   Mostly Cloudy
10:53 AM 78.1 °F - 66.9 °F 68% 30.18 in 10.0 mi South 5.8 mph - N/A   Scattered Clouds
11:53 AM 80.1 °F 81.5 °F 63.0 °F 56% 30.16 in 10.0 mi South 9.2 mph - N/A   Scattered Clouds
12:53 PM 82.0 °F 82.4 °F 60.1 °F 47% 30.13 in 10.0 mi SSE 9.2 mph - N/A   Scattered Clouds
1:53 PM 82.9 °F 82.6 °F 57.9 °F 42% 30.10 in 10.0 mi South 6.9 mph 17.3 mph N/A   Scattered Clouds
2:53 PM 82.0 °F 82.0 °F 57.9 °F 44% 30.09 in 10.0 mi SSE 11.5 mph 23.0 mph N/A   Scattered Clouds
3:53 PM 82.0 °F 81.7 °F 57.0 °F 42% 30.09 in 10.0 mi SSE 12.7 mph - N/A   Scattered Clouds
4:53 PM 77.0 °F - 66.0 °F 69% 30.09 in 10.0 mi ESE 13.8 mph - N/A   Scattered Clouds
5:53 PM 73.0 °F - 66.0 °F 79% 30.10 in 10.0 mi SE 12.7 mph - N/A   Scattered Clouds
6:53 PM 71.1 °F - 66.0 °F 84% 30.11 in 10.0 mi SSE 10.4 mph - N/A   Scattered Clouds
7:53 PM 69.1 °F - 66.0 °F 90% 30.12 in 10.0 mi SE 11.5 mph - N/A   Clear
8:53 PM 69.1 °F - 66.0 °F 90% 30.12 in 10.0 mi SSE 9.2 mph - N/A   Partly Cloudy
9:53 PM 68.0 °F - 66.9 °F 96% 30.12 in 10.0 mi SSE 10.4 mph - N/A   Partly Cloudy
10:53 PM 69.1 °F - 66.0 °F 90% 30.11 in 10.0 mi SE 9.2 mph - N/A   Scattered Clouds
11:53 PM 66.9 °F - 64.9 °F 93% 30.11 in 10.0 mi ESE 3.5 mph - N/A   Scattered Clouds